owner,sensor,date,latitude,longitude,vertical_datum,mass_concentration_of_oxygen_in_sea_water,qcFlag 
DISL,ioos:station:DISL:BSCA:1,2019-09-01T00:30:00Z,30.3288,-87.8293,1.959,3.63,11111222 
DISL,ioos:station:DISL:BSCA:1,2019-09-01T01:30:00Z,30.3288,-87.8293,1.905,3.66,11111222 
DISL,ioos:station:DISL:BSCA:1,2019-09-01T02:30:00Z,30.3288,-87.8293,1.878,3.72,11111222 
DISL,ioos:station:DISL:BSCA:1,2019-09-01T03:30:00Z,30.3288,-87.8293,1.882,3.87,11111222 
DISL,ioos:station:DISL:BSCA:1,2019-09-01T04:30:00Z,30.3288,-87.8293,1.882,3.29,11111222 
DISL,ioos:station:DISL:BSCA:1,2019-09-01T05:30:00Z,30.3288,-87.8293,1.882,2.23,11111222 
DISL,ioos:station:DISL:BSCA:1,2019-09-01T06:30:00Z,30.3288,-87.8293,1.911,1.38,11111222 
DISL,ioos:station:DISL:BSCA:1,2019-09-01T07:30:00Z,30.3288,-87.8293,1.937,1.97,11111222 
DISL,ioos:station:DISL:BSCA:1,2019-09-01T08:30:00Z,30.3288,-87.8293,1.925,2.4,11111222 
DISL,ioos:station:DISL:BSCA:1,2019-09-01T09:30:00Z,30.3288,-87.8293,1.947,2.46,11111222 
DISL,ioos:station:DISL:BSCA:1,2019-09-01T10:30:00Z,30.3288,-87.8293,1.982,3.5,11111222 
DISL,ioos:station:DISL:BSCA:1,2019-09-01T11:30:00Z,30.3288,-87.8293,1.972,2.75,11111222 
DISL,ioos:station:DISL:BSCA:1,2019-09-01T12:30:00Z,30.3288,-87.8293,1.971,3.88,11111222 
DISL,ioos:station:DISL:BSCA:1,2019-09-01T13:30:00Z,30.3288,-87.8293,2.005,4.72,11111222 
DISL,ioos:station:DISL:BSCA:1,2019-09-01T14:30:00Z,30.3288,-87.8293,2.053,3.68,11111222 
DISL,ioos:station:DISL:BSCA:1,2019-09-01T15:30:00Z,30.3288,-87.8293,2.089,1.53,11111222 
DISL,ioos:station:DISL:BSCA:1,2019-09-01T16:30:00Z,30.3288,-87.8293,2.125,4.0,11111222 
DISL,ioos:station:DISL:BSCA:1,2019-09-01T17:30:00Z,30.3288,-87.8293,2.162,3.57,11111222 
DISL,ioos:station:DISL:BSCA:1,2019-09-01T18:30:00Z,30.3288,-87.8293,2.204,2.37,11111222 
DISL,ioos:station:DISL:BSCA:1,2019-09-01T19:30:00Z,30.3288,-87.8293,2.225,4.21,11111222 
DISL,ioos:station:DISL:BSCA:1,2019-09-01T20:30:00Z,30.3288,-87.8293,2.222,1.23,11111222 
DISL,ioos:station:DISL:BSCA:1,2019-09-01T21:30:00Z,30.3288,-87.8293,2.196,4.24,11111222 
DISL,ioos:station:DISL:BSCA:1,2019-09-01T22:30:00Z,30.3288,-87.8293,2.14,5.83,11111222 
DISL,ioos:station:DISL:BSCA:1,2019-09-01T23:30:00Z,30.3288,-87.8293,2.084,5.84,11111222 
DISL,ioos:station:DISL:BSCA:1,2019-09-02T00:30:00Z,30.3288,-87.8293,2.026,5.54,11111222 
DISL,ioos:station:DISL:BSCA:1,2019-09-02T01:30:00Z,30.3288,-87.8293,1.985,1.17,11111222 
DISL,ioos:station:DISL:BSCA:1,2019-09-02T02:30:00Z,30.3288,-87.8293,1.965,1.43,11111222 
DISL,ioos:station:DISL:BSCA:1,2019-09-02T03:30:00Z,30.3288,-87.8293,1.95,3.58,11111222 
DISL,ioos:station:DISL:BSCA:1,2019-09-02T04:30:00Z,30.3288,-87.8293,1.938,3.2,11111222 
DISL,ioos:station:DISL:BSCA:1,2019-09-02T05:30:00Z,30.3288,-87.8293,1.932,3.71,11111222 
DISL,ioos:station:DISL:BSCA:1,2019-09-02T06:30:00Z,30.3288,-87.8293,1.956,3.97,11111222 
DISL,ioos:station:DISL:BSCA:1,2019-09-02T07:30:00Z,30.3288,-87.8293,1.964,3.81,11111222 
DISL,ioos:station:DISL:BSCA:1,2019-09-02T08:30:00Z,30.3288,-87.8293,1.989,3.19,11111222 
DISL,ioos:station:DISL:BSCA:1,2019-09-02T09:30:00Z,30.3288,-87.8293,1.983,3.6,11111222 
DISL,ioos:station:DISL:BSCA:1,2019-09-02T11:30:00Z,30.3288,-87.8293,1.958,4.35,11111222 
DISL,ioos:station:DISL:BSCA:1,2019-09-02T12:30:00Z,30.3288,-87.8293,1.943,4.1,11111222 
DISL,ioos:station:DISL:BSCA:1,2019-09-02T15:30:00Z,30.3288,-87.8293,1.943,2.29,11111222 
DISL,ioos:station:DISL:BSCA:1,2019-09-02T16:30:00Z,30.3288,-87.8293,1.975,2.24,11111222 
DISL,ioos:station:DISL:BSCA:1,2019-09-02T17:30:00Z,30.3288,-87.8293,2.01,3.34,11111222 
DISL,ioos:station:DISL:BSCA:1,2019-09-02T18:30:00Z,30.3288,-87.8293,2.049,0.68,11111222 
DISL,ioos:station:DISL:BSCA:1,2019-09-02T19:30:00Z,30.3288,-87.8293,2.076,1.56,11111222 
DISL,ioos:station:DISL:BSCA:1,2019-09-02T20:30:00Z,30.3288,-87.8293,2.088,1.09,11111222 
DISL,ioos:station:DISL:BSCA:1,2019-09-02T21:30:00Z,30.3288,-87.8293,2.091,3.24,11111222 
DISL,ioos:station:DISL:BSCA:1,2019-09-02T22:30:00Z,30.3288,-87.8293,2.088,2.01,11111222 
DISL,ioos:station:DISL:BSCA:1,2019-09-02T23:30:00Z,30.3288,-87.8293,2.057,2.49,11111222 
DISL,ioos:station:DISL:BSCA:1,2019-09-03T00:30:00Z,30.3288,-87.8293,2.055,3.09,11111222 
DISL,ioos:station:DISL:BSCA:1,2019-09-03T01:30:00Z,30.3288,-87.8293,1.984,1.14,11111222 
DISL,ioos:station:DISL:BSCA:1,2019-09-03T02:30:00Z,30.3288,-87.8293,1.954,5.09,11111222 
DISL,ioos:station:DISL:BSCA:1,2019-09-03T03:30:00Z,30.3288,-87.8293,1.972,6.09,11111222 
DISL,ioos:station:DISL:BSCA:1,2019-09-03T04:30:00Z,30.3288,-87.8293,2.002,4.94,11111222 
DISL,ioos:station:DISL:BSCA:1,2019-09-03T05:30:00Z,30.3288,-87.8293,2.026,4.76,11111222 
DISL,ioos:station:DISL:BSCA:1,2019-09-03T06:30:00Z,30.3288,-87.8293,2.021,3.57,11111222 
DISL,ioos:station:DISL:BSCA:1,2019-09-03T07:30:00Z,30.3288,-87.8293,2.031,0.52,11111222 
DISL,ioos:station:DISL:BSCA:1,2019-09-03T08:30:00Z,30.3288,-87.8293,2.052,0.69,11111222 
DISL,ioos:station:DISL:BSCA:1,2019-09-03T09:30:00Z,30.3288,-87.8293,2.035,0.29,11111222 
DISL,ioos:station:DISL:BSCA:1,2019-09-03T10:30:00Z,30.3288,-87.8293,1.999,0.3,11111222 
DISL,ioos:station:DISL:BSCA:1,2019-09-03T11:30:00Z,30.3288,-87.8293,1.955,0.52,11111222 
DISL,ioos:station:DISL:BSCA:1,2019-09-03T12:30:00Z,30.3288,-87.8293,1.906,0.31,11111222 
DISL,ioos:station:DISL:BSCA:1,2019-09-03T13:30:00Z,30.3288,-87.8293,1.884,0.41,11111222 
DISL,ioos:station:DISL:BSCA:1,2019-09-03T14:30:00Z,30.3288,-87.8293,1.855,0.26,11111222 
DISL,ioos:station:DISL:BSCA:1,2019-09-03T15:30:00Z,30.3288,-87.8293,1.834,0.31,11111222 
DISL,ioos:station:DISL:BSCA:1,2019-09-03T16:30:00Z,30.3288,-87.8293,1.832,2.58,11111222 
DISL,ioos:station:DISL:BSCA:1,2019-09-03T17:30:00Z,30.3288,-87.8293,1.857,0.2,11111222 
DISL,ioos:station:DISL:BSCA:1,2019-09-03T18:30:00Z,30.3288,-87.8293,1.897,0.26,11111222 
DISL,ioos:station:DISL:BSCA:1,2019-09-03T19:30:00Z,30.3288,-87.8293,1.93,0.58,11111222 
DISL,ioos:station:DISL:BSCA:1,2019-09-03T20:30:00Z,30.3288,-87.8293,1.946,0.38,11111222 
DISL,ioos:station:DISL:BSCA:1,2019-09-03T21:30:00Z,30.3288,-87.8293,1.972,0.36,11111222 
DISL,ioos:station:DISL:BSCA:1,2019-09-03T22:30:00Z,30.3288,-87.8293,1.993,0.38,11111222 
DISL,ioos:station:DISL:BSCA:1,2019-09-03T23:30:00Z,30.3288,-87.8293,2.005,0.58,11111222 
DISL,ioos:station:DISL:BSCA:1,2019-09-04T00:30:00Z,30.3288,-87.8293,2.014,1.72,11111222 
DISL,ioos:station:DISL:BSCA:1,2019-09-04T01:30:00Z,30.3288,-87.8293,2.019,3.39,11111222 
DISL,ioos:station:DISL:BSCA:1,2019-09-04T02:30:00Z,30.3288,-87.8293,2.035,4.72,11111222 
DISL,ioos:station:DISL:BSCA:1,2019-09-04T03:30:00Z,30.3288,-87.8293,2.063,4.94,11111222 
DISL,ioos:station:DISL:BSCA:1,2019-09-04T04:30:00Z,30.3288,-87.8293,2.078,5.07,11111222 
DISL,ioos:station:DISL:BSCA:1,2019-09-04T05:30:00Z,30.3288,-87.8293,2.101,7.58,11111222 
DISL,ioos:station:DISL:BSCA:1,2019-09-04T06:30:00Z,30.3288,-87.8293,2.105,3.38,11111222 
DISL,ioos:station:DISL:BSCA:1,2019-09-04T07:30:00Z,30.3288,-87.8293,2.108,3.28,11111222 
DISL,ioos:station:DISL:BSCA:1,2019-09-04T08:30:00Z,30.3288,-87.8293,2.096,4.68,11111222 
DISL,ioos:station:DISL:BSCA:1,2019-09-04T09:30:00Z,30.3288,-87.8293,2.059,6.19,11111222 
DISL,ioos:station:DISL:BSCA:1,2019-09-04T10:30:00Z,30.3288,-87.8293,2.006,1.62,11111222 
DISL,ioos:station:DISL:BSCA:1,2019-09-04T11:30:00Z,30.3288,-87.8293,1.963,0.78,11111222 
DISL,ioos:station:DISL:BSCA:1,2019-09-04T12:30:00Z,30.3288,-87.8293,1.909,1.07,11111222 
DISL,ioos:station:DISL:BSCA:1,2019-09-04T13:30:00Z,30.3288,-87.8293,1.857,0.16,11111222 
DISL,ioos:station:DISL:BSCA:1,2019-09-04T14:30:00Z,30.3288,-87.8293,1.807,0.15,11111222 
DISL,ioos:station:DISL:BSCA:1,2019-09-04T15:30:00Z,30.3288,-87.8293,1.767,0.14,11111222 
DISL,ioos:station:DISL:BSCA:1,2019-09-04T16:30:00Z,30.3288,-87.8293,1.73,0.19,11111222 
DISL,ioos:station:DISL:BSCA:1,2019-09-04T17:30:00Z,30.3288,-87.8293,1.726,0.25,11111222 
DISL,ioos:station:DISL:BSCA:1,2019-09-04T18:30:00Z,30.3288,-87.8293,1.74,0.24,11111222 
DISL,ioos:station:DISL:BSCA:1,2019-09-04T19:30:00Z,30.3288,-87.8293,1.746,0.42,11111222 
DISL,ioos:station:DISL:BSCA:1,2019-09-04T20:30:00Z,30.3288,-87.8293,1.77,0.66,11111222 
DISL,ioos:station:DISL:BSCA:1,2019-09-04T21:30:00Z,30.3288,-87.8293,1.782,0.84,11111222 
DISL,ioos:station:DISL:BSCA:1,2019-09-04T22:30:00Z,30.3288,-87.8293,1.793,1.81,11111222 
DISL,ioos:station:DISL:BSCA:1,2019-09-04T23:30:00Z,30.3288,-87.8293,1.832,2.04,11111222 
DISL,ioos:station:DISL:BSCA:1,2019-09-05T00:30:00Z,30.3288,-87.8293,1.875,0.92,11111222 
DISL,ioos:station:DISL:BSCA:1,2019-09-05T01:30:00Z,30.3288,-87.8293,1.891,0.96,11111222 
DISL,ioos:station:DISL:BSCA:1,2019-09-05T02:30:00Z,30.3288,-87.8293,1.921,0.44,11111222 
DISL,ioos:station:DISL:BSCA:1,2019-09-05T03:30:00Z,30.3288,-87.8293,1.945,0.79,11111222 
DISL,ioos:station:DISL:BSCA:1,2019-09-05T04:30:00Z,30.3288,-87.8293,2.016,0.25,11111222 
DISL,ioos:station:DISL:BSCA:1,2019-09-05T05:30:00Z,30.3288,-87.8293,2.063,0.42,11111222 
DISL,ioos:station:DISL:BSCA:1,2019-09-05T06:30:00Z,30.3288,-87.8293,2.089,0.73,11111222 
DISL,ioos:station:DISL:BSCA:1,2019-09-05T07:30:00Z,30.3288,-87.8293,2.102,1.36,11111222 
DISL,ioos:station:DISL:BSCA:1,2019-09-05T08:30:00Z,30.3288,-87.8293,2.08,2.13,11111222 
DISL,ioos:station:DISL:BSCA:1,2019-09-05T09:30:00Z,30.3288,-87.8293,2.038,2.49,11111222 
DISL,ioos:station:DISL:BSCA:1,2019-09-05T10:30:00Z,30.3288,-87.8293,1.992,2.45,11111222 
DISL,ioos:station:DISL:BSCA:1,2019-09-05T11:30:00Z,30.3288,-87.8293,1.952,2.01,11111222 
DISL,ioos:station:DISL:BSCA:1,2019-09-05T12:30:00Z,30.3288,-87.8293,1.91,2.84,11111222 
DISL,ioos:station:DISL:BSCA:1,2019-09-05T13:30:00Z,30.3288,-87.8293,1.869,1.56,11111222 
DISL,ioos:station:DISL:BSCA:1,2019-09-05T14:30:00Z,30.3288,-87.8293,1.82,1.64,11111222 
DISL,ioos:station:DISL:BSCA:1,2019-09-05T15:30:00Z,30.3288,-87.8293,1.76,0.94,11111222 
DISL,ioos:station:DISL:BSCA:1,2019-09-05T16:30:00Z,30.3288,-87.8293,1.719,1.75,11111222 
DISL,ioos:station:DISL:BSCA:1,2019-09-05T17:30:00Z,30.3288,-87.8293,1.69,1.61,11111222 
DISL,ioos:station:DISL:BSCA:1,2019-09-05T18:30:00Z,30.3288,-87.8293,1.676,0.95,11111222 
DISL,ioos:station:DISL:BSCA:1,2019-09-05T19:30:00Z,30.3288,-87.8293,1.659,0.85,11111222 
DISL,ioos:station:DISL:BSCA:1,2019-09-05T20:30:00Z,30.3288,-87.8293,1.676,2.81,11111222 
DISL,ioos:station:DISL:BSCA:1,2019-09-05T21:30:00Z,30.3288,-87.8293,1.711,5.42,11111222 
DISL,ioos:station:DISL:BSCA:1,2019-09-05T22:30:00Z,30.3288,-87.8293,1.742,5.47,11111222 
DISL,ioos:station:DISL:BSCA:1,2019-09-05T23:30:00Z,30.3288,-87.8293,1.792,5.78,11111222 
DISL,ioos:station:DISL:BSCA:1,2019-09-06T00:30:00Z,30.3288,-87.8293,1.821,6.41,11111222 
DISL,ioos:station:DISL:BSCA:1,2019-09-06T01:30:00Z,30.3288,-87.8293,1.818,6.25,11111222 
DISL,ioos:station:DISL:BSCA:1,2019-09-06T02:30:00Z,30.3288,-87.8293,1.813,5.57,11111222 
DISL,ioos:station:DISL:BSCA:1,2019-09-06T03:30:00Z,30.3288,-87.8293,1.858,5.65,11111222 
DISL,ioos:station:DISL:BSCA:1,2019-09-06T04:30:00Z,30.3288,-87.8293,1.911,5.15,11111222 
DISL,ioos:station:DISL:BSCA:1,2019-09-06T05:30:00Z,30.3288,-87.8293,1.957,5.04,11111222 
DISL,ioos:station:DISL:BSCA:1,2019-09-06T08:30:00Z,30.3288,-87.8293,2.015,4.98,11111222 
DISL,ioos:station:DISL:BSCA:1,2019-09-06T09:30:00Z,30.3288,-87.8293,1.997,5.27,11111222 
DISL,ioos:station:DISL:BSCA:1,2019-09-06T10:30:00Z,30.3288,-87.8293,1.954,5.37,11111222 
DISL,ioos:station:DISL:BSCA:1,2019-09-06T11:30:00Z,30.3288,-87.8293,1.9,4.24,11111222 
DISL,ioos:station:DISL:BSCA:1,2019-09-06T12:30:00Z,30.3288,-87.8293,1.867,4.99,11111222 
DISL,ioos:station:DISL:BSCA:1,2019-09-06T13:30:00Z,30.3288,-87.8293,1.838,5.16,11111222 
DISL,ioos:station:DISL:BSCA:1,2019-09-06T14:30:00Z,30.3288,-87.8293,1.807,4.74,11111222 
DISL,ioos:station:DISL:BSCA:1,2019-09-06T15:30:00Z,30.3288,-87.8293,1.763,4.95,11111222 
DISL,ioos:station:DISL:BSCA:1,2019-09-06T16:30:00Z,30.3288,-87.8293,1.724,5.27,11111222 
DISL,ioos:station:DISL:BSCA:1,2019-09-06T17:30:00Z,30.3288,-87.8293,1.684,4.34,11111222 
DISL,ioos:station:DISL:BSCA:1,2019-09-06T18:30:00Z,30.3288,-87.8293,1.657,4.04,11111222 
DISL,ioos:station:DISL:BSCA:1,2019-09-06T19:30:00Z,30.3288,-87.8293,1.639,4.09,11111222 
DISL,ioos:station:DISL:BSCA:1,2019-09-06T20:30:00Z,30.3288,-87.8293,1.619,3.99,11111222 
DISL,ioos:station:DISL:BSCA:1,2019-09-06T21:30:00Z,30.3288,-87.8293,1.605,4.95,11111222 
DISL,ioos:station:DISL:BSCA:1,2019-09-06T22:30:00Z,30.3288,-87.8293,1.604,4.54,11111222 
DISL,ioos:station:DISL:BSCA:1,2019-09-06T23:30:00Z,30.3288,-87.8293,1.616,4.94,11111222 
DISL,ioos:station:DISL:BSCA:1,2019-09-07T00:30:00Z,30.3288,-87.8293,1.649,4.53,11111222 
DISL,ioos:station:DISL:BSCA:1,2019-09-07T01:30:00Z,30.3288,-87.8293,1.705,3.58,11111222 
DISL,ioos:station:DISL:BSCA:1,2019-09-07T02:30:00Z,30.3288,-87.8293,1.781,2.84,11111222 
DISL,ioos:station:DISL:BSCA:1,2019-09-07T03:30:00Z,30.3288,-87.8293,1.853,3.07,11111222 
DISL,ioos:station:DISL:BSCA:1,2019-09-07T04:30:00Z,30.3288,-87.8293,1.923,2.56,11111222 
DISL,ioos:station:DISL:BSCA:1,2019-09-07T05:30:00Z,30.3288,-87.8293,1.986,3.7,11111222 
DISL,ioos:station:DISL:BSCA:1,2019-09-07T06:30:00Z,30.3288,-87.8293,2.027,4.54,11111222 
DISL,ioos:station:DISL:BSCA:1,2019-09-07T07:30:00Z,30.3288,-87.8293,2.063,3.97,11111222 
DISL,ioos:station:DISL:BSCA:1,2019-09-07T08:30:00Z,30.3288,-87.8293,2.094,3.79,11111222 
DISL,ioos:station:DISL:BSCA:1,2019-09-07T09:30:00Z,30.3288,-87.8293,2.103,3.59,11111222 
DISL,ioos:station:DISL:BSCA:1,2019-09-07T10:30:00Z,30.3288,-87.8293,2.091,3.2,11111222 
DISL,ioos:station:DISL:BSCA:1,2019-09-07T11:30:00Z,30.3288,-87.8293,2.063,2.98,11111222 
DISL,ioos:station:DISL:BSCA:1,2019-09-07T12:30:00Z,30.3288,-87.8293,2.051,2.77,11111222 
DISL,ioos:station:DISL:BSCA:1,2019-09-07T13:30:00Z,30.3288,-87.8293,2.006,3.86,11111222 
DISL,ioos:station:DISL:BSCA:1,2019-09-07T14:30:00Z,30.3288,-87.8293,1.964,4.37,11111222 
DISL,ioos:station:DISL:BSCA:1,2019-09-07T15:30:00Z,30.3288,-87.8293,1.904,4.3,11111222 
DISL,ioos:station:DISL:BSCA:1,2019-09-07T16:30:00Z,30.3288,-87.8293,1.846,3.11,11111222 
DISL,ioos:station:DISL:BSCA:1,2019-09-07T17:30:00Z,30.3288,-87.8293,1.778,2.92,11111222 
DISL,ioos:station:DISL:BSCA:1,2019-09-07T18:30:00Z,30.3288,-87.8293,1.725,2.98,11111222 
DISL,ioos:station:DISL:BSCA:1,2019-09-07T19:30:00Z,30.3288,-87.8293,1.677,3.68,11111222 
DISL,ioos:station:DISL:BSCA:1,2019-09-07T20:30:00Z,30.3288,-87.8293,1.639,2.5,11111222 
DISL,ioos:station:DISL:BSCA:1,2019-09-07T21:30:00Z,30.3288,-87.8293,1.622,2.43,11111222 
DISL,ioos:station:DISL:BSCA:1,2019-09-07T22:30:00Z,30.3288,-87.8293,1.633,3.27,11111222 
DISL,ioos:station:DISL:BSCA:1,2019-09-07T23:30:00Z,30.3288,-87.8293,1.641,4.6,11111222 
DISL,ioos:station:DISL:BSCA:1,2019-09-08T00:30:00Z,30.3288,-87.8293,1.659,4.92,11111222 
DISL,ioos:station:DISL:BSCA:1,2019-09-08T01:30:00Z,30.3288,-87.8293,1.726,4.23,11111222 
DISL,ioos:station:DISL:BSCA:1,2019-09-08T02:30:00Z,30.3288,-87.8293,1.798,4.21,11111222 
DISL,ioos:station:DISL:BSCA:1,2019-09-08T03:30:00Z,30.3288,-87.8293,1.859,3.47,11111222 
DISL,ioos:station:DISL:BSCA:1,2019-09-08T04:30:00Z,30.3288,-87.8293,1.916,2.33,11111222 
DISL,ioos:station:DISL:BSCA:1,2019-09-08T05:30:00Z,30.3288,-87.8293,1.973,3.15,11111222 
DISL,ioos:station:DISL:BSCA:1,2019-09-08T06:30:00Z,30.3288,-87.8293,2.026,2.91,11111222 
DISL,ioos:station:DISL:BSCA:1,2019-09-08T07:30:00Z,30.3288,-87.8293,2.076,3.8,11111222 
DISL,ioos:station:DISL:BSCA:1,2019-09-08T08:30:00Z,30.3288,-87.8293,2.123,3.75,11111222 
DISL,ioos:station:DISL:BSCA:1,2019-09-08T09:30:00Z,30.3288,-87.8293,2.166,2.99,11111222 
DISL,ioos:station:DISL:BSCA:1,2019-09-08T10:30:00Z,30.3288,-87.8293,2.177,4.34,11111222 
DISL,ioos:station:DISL:BSCA:1,2019-09-08T11:30:00Z,30.3288,-87.8293,2.175,4.36,11111222 
DISL,ioos:station:DISL:BSCA:1,2019-09-08T12:30:00Z,30.3288,-87.8293,2.152,4.33,11111222 
DISL,ioos:station:DISL:BSCA:1,2019-09-08T13:30:00Z,30.3288,-87.8293,2.118,4.04,11111222 
DISL,ioos:station:DISL:BSCA:1,2019-09-08T14:30:00Z,30.3288,-87.8293,2.083,4.19,11111222 
DISL,ioos:station:DISL:BSCA:1,2019-09-08T15:30:00Z,30.3288,-87.8293,2.034,4.27,11111222 
DISL,ioos:station:DISL:BSCA:1,2019-09-08T16:30:00Z,30.3288,-87.8293,1.966,4.44,11111222 
DISL,ioos:station:DISL:BSCA:1,2019-09-08T17:30:00Z,30.3288,-87.8293,1.907,2.2,11111222 
DISL,ioos:station:DISL:BSCA:1,2019-09-08T18:30:00Z,30.3288,-87.8293,1.852,2.28,11111222 
DISL,ioos:station:DISL:BSCA:1,2019-09-08T19:30:00Z,30.3288,-87.8293,1.791,4.58,11111222 
DISL,ioos:station:DISL:BSCA:1,2019-09-08T20:30:00Z,30.3288,-87.8293,1.744,5.44,11111222 
DISL,ioos:station:DISL:BSCA:1,2019-09-08T21:30:00Z,30.3288,-87.8293,1.709,4.85,11111222 
DISL,ioos:station:DISL:BSCA:1,2019-09-08T22:30:00Z,30.3288,-87.8293,1.69,4.77,11111222 
DISL,ioos:station:DISL:BSCA:1,2019-09-08T23:30:00Z,30.3288,-87.8293,1.706,5.67,11111222 
DISL,ioos:station:DISL:BSCA:1,2019-09-09T00:30:00Z,30.3288,-87.8293,1.75,5.58,11111222 
DISL,ioos:station:DISL:BSCA:1,2019-09-09T01:30:00Z,30.3288,-87.8293,1.8,4.81,11111222 
DISL,ioos:station:DISL:BSCA:1,2019-09-09T02:30:00Z,30.3288,-87.8293,1.847,4.78,11111222 
DISL,ioos:station:DISL:BSCA:1,2019-09-09T03:30:00Z,30.3288,-87.8293,1.908,3.88,11111222 
DISL,ioos:station:DISL:BSCA:1,2019-09-09T04:30:00Z,30.3288,-87.8293,1.944,3.09,11111222 
DISL,ioos:station:DISL:BSCA:1,2019-09-09T05:30:00Z,30.3288,-87.8293,1.997,2.97,11111222 
DISL,ioos:station:DISL:BSCA:1,2019-09-09T06:30:00Z,30.3288,-87.8293,2.043,2.63,11111222 
DISL,ioos:station:DISL:BSCA:1,2019-09-09T07:30:00Z,30.3288,-87.8293,2.064,3.93,11111222 
DISL,ioos:station:DISL:BSCA:1,2019-09-09T08:30:00Z,30.3288,-87.8293,2.09,3.06,11111222 
DISL,ioos:station:DISL:BSCA:1,2019-09-09T09:30:00Z,30.3288,-87.8293,2.127,2.65,11111222 
DISL,ioos:station:DISL:BSCA:1,2019-09-09T10:30:00Z,30.3288,-87.8293,2.167,3.05,11111222 
DISL,ioos:station:DISL:BSCA:1,2019-09-09T11:30:00Z,30.3288,-87.8293,2.184,2.48,11111222 
DISL,ioos:station:DISL:BSCA:1,2019-09-09T12:30:00Z,30.3288,-87.8293,2.191,1.9,11111222 
DISL,ioos:station:DISL:BSCA:1,2019-09-09T13:30:00Z,30.3288,-87.8293,2.166,3.21,11111222 
DISL,ioos:station:DISL:BSCA:1,2019-09-09T14:30:00Z,30.3288,-87.8293,2.134,2.72,11111222 
DISL,ioos:station:DISL:BSCA:1,2019-09-09T15:30:00Z,30.3288,-87.8293,2.093,4.24,11111222 
DISL,ioos:station:DISL:BSCA:1,2019-09-09T16:30:00Z,30.3288,-87.8293,2.031,4.39,11111222 
DISL,ioos:station:DISL:BSCA:1,2019-09-09T17:30:00Z,30.3288,-87.8293,1.966,4.98,11111222 
DISL,ioos:station:DISL:BSCA:1,2019-09-09T18:30:00Z,30.3288,-87.8293,1.9,4.67,11111222 
DISL,ioos:station:DISL:BSCA:1,2019-09-09T22:30:00Z,30.3288,-87.8293,1.718,4.96,11111222 
DISL,ioos:station:DISL:BSCA:1,2019-09-09T23:30:00Z,30.3288,-87.8293,1.717,4.72,11111222 
DISL,ioos:station:DISL:BSCA:1,2019-09-10T00:30:00Z,30.3288,-87.8293,1.748,4.12,11111222 
DISL,ioos:station:DISL:BSCA:1,2019-09-10T01:30:00Z,30.3288,-87.8293,1.792,4.36,11111222 
DISL,ioos:station:DISL:BSCA:1,2019-09-10T02:30:00Z,30.3288,-87.8293,1.827,4.55,11111222 
DISL,ioos:station:DISL:BSCA:1,2019-09-10T03:30:00Z,30.3288,-87.8293,1.871,4.59,11111222 
DISL,ioos:station:DISL:BSCA:1,2019-09-10T04:30:00Z,30.3288,-87.8293,1.924,3.22,11111222 
DISL,ioos:station:DISL:BSCA:1,2019-09-10T05:30:00Z,30.3288,-87.8293,1.975,2.51,11111222 
DISL,ioos:station:DISL:BSCA:1,2019-09-10T06:30:00Z,30.3288,-87.8293,2.016,2.49,11111222 
DISL,ioos:station:DISL:BSCA:1,2019-09-10T07:30:00Z,30.3288,-87.8293,2.054,3.65,11111222 
DISL,ioos:station:DISL:BSCA:1,2019-09-10T08:30:00Z,30.3288,-87.8293,2.11,3.16,11111222 
DISL,ioos:station:DISL:BSCA:1,2019-09-10T09:30:00Z,30.3288,-87.8293,2.139,3.68,11111222 
DISL,ioos:station:DISL:BSCA:1,2019-09-10T10:30:00Z,30.3288,-87.8293,2.162,3.25,11111222 
DISL,ioos:station:DISL:BSCA:1,2019-09-10T11:30:00Z,30.3288,-87.8293,2.192,2.91,11111222 
DISL,ioos:station:DISL:BSCA:1,2019-09-10T12:30:00Z,30.3288,-87.8293,2.211,3.08,11111222 
DISL,ioos:station:DISL:BSCA:1,2019-09-10T13:30:00Z,30.3288,-87.8293,2.199,3.63,11111222 
DISL,ioos:station:DISL:BSCA:1,2019-09-10T14:30:00Z,30.3288,-87.8293,2.16,2.63,11111222 
DISL,ioos:station:DISL:BSCA:1,2019-09-10T15:30:00Z,30.3288,-87.8293,2.133,3.86,11111222 
DISL,ioos:station:DISL:BSCA:1,2019-09-10T16:30:00Z,30.3288,-87.8293,2.08,4.29,11111222 
DISL,ioos:station:DISL:BSCA:1,2019-09-10T17:30:00Z,30.3288,-87.8293,2.02,4.97,11111222 
DISL,ioos:station:DISL:BSCA:1,2019-09-10T18:30:00Z,30.3288,-87.8293,1.958,5.31,11111222 
DISL,ioos:station:DISL:BSCA:1,2019-09-10T19:30:00Z,30.3288,-87.8293,1.894,5.63,11111222 
DISL,ioos:station:DISL:BSCA:1,2019-09-10T20:30:00Z,30.3288,-87.8293,1.83,5.76,11111222 
DISL,ioos:station:DISL:BSCA:1,2019-09-10T21:30:00Z,30.3288,-87.8293,1.786,5.13,11111222 
DISL,ioos:station:DISL:BSCA:1,2019-09-10T22:30:00Z,30.3288,-87.8293,1.751,4.81,11111222 
DISL,ioos:station:DISL:BSCA:1,2019-09-10T23:30:00Z,30.3288,-87.8293,1.727,4.71,11111222 
DISL,ioos:station:DISL:BSCA:1,2019-09-11T00:00:00Z,30.3288,-87.8293,1.73,4.71,11111222 
DISL,ioos:station:DISL:BSCA:1,2019-09-11T01:30:00Z,30.3288,-87.8293,1.739,4.39,11111222 
DISL,ioos:station:DISL:BSCA:1,2019-09-11T02:30:00Z,30.3288,-87.8293,1.777,4.22,11111222 
DISL,ioos:station:DISL:BSCA:1,2019-09-11T03:30:00Z,30.3288,-87.8293,1.819,2.68,11111222 
DISL,ioos:station:DISL:BSCA:1,2019-09-11T04:30:00Z,30.3288,-87.8293,1.863,2.83,11111222 
DISL,ioos:station:DISL:BSCA:1,2019-09-11T05:30:00Z,30.3288,-87.8293,1.885,3.32,11111222 
DISL,ioos:station:DISL:BSCA:1,2019-09-11T06:30:00Z,30.3288,-87.8293,1.93,3.71,11111222 
DISL,ioos:station:DISL:BSCA:1,2019-09-11T07:30:00Z,30.3288,-87.8293,1.966,3.21,11111222 
DISL,ioos:station:DISL:BSCA:1,2019-09-11T08:30:00Z,30.3288,-87.8293,1.994,3.36,11111222 
DISL,ioos:station:DISL:BSCA:1,2019-09-11T09:30:00Z,30.3288,-87.8293,2.013,2.92,11111222 
DISL,ioos:station:DISL:BSCA:1,2019-09-11T10:30:00Z,30.3288,-87.8293,2.051,3.83,11111222 
DISL,ioos:station:DISL:BSCA:1,2019-09-11T11:30:00Z,30.3288,-87.8293,2.093,2.93,11111222 
DISL,ioos:station:DISL:BSCA:1,2019-09-11T12:30:00Z,30.3288,-87.8293,2.13,4.21,11111222 
DISL,ioos:station:DISL:BSCA:1,2019-09-11T13:30:00Z,30.3288,-87.8293,2.155,4.11,11111222 
DISL,ioos:station:DISL:BSCA:1,2019-09-11T14:30:00Z,30.3288,-87.8293,2.162,3.06,11111222 
DISL,ioos:station:DISL:BSCA:1,2019-09-11T15:30:00Z,30.3288,-87.8293,2.15,3.73,11111222 
DISL,ioos:station:DISL:BSCA:1,2019-09-11T16:30:00Z,30.3288,-87.8293,2.126,3.56,11111222 
DISL,ioos:station:DISL:BSCA:1,2019-09-11T17:30:00Z,30.3288,-87.8293,2.092,4.41,11111222 
DISL,ioos:station:DISL:BSCA:1,2019-09-11T18:30:00Z,30.3288,-87.8293,2.037,5.21,11111222 
DISL,ioos:station:DISL:BSCA:1,2019-09-11T19:30:00Z,30.3288,-87.8293,1.977,5.54,11111222 
DISL,ioos:station:DISL:BSCA:1,2019-09-11T20:30:00Z,30.3288,-87.8293,1.905,6.07,11111222 
DISL,ioos:station:DISL:BSCA:1,2019-09-11T21:30:00Z,30.3288,-87.8293,1.85,6.42,11111222 
DISL,ioos:station:DISL:BSCA:1,2019-09-11T22:30:00Z,30.3288,-87.8293,1.818,6.17,11111222 
DISL,ioos:station:DISL:BSCA:1,2019-09-11T23:30:00Z,30.3288,-87.8293,1.808,5.82,11111222 
DISL,ioos:station:DISL:BSCA:1,2019-09-12T00:30:00Z,30.3288,-87.8293,1.817,5.2,11111222 
DISL,ioos:station:DISL:BSCA:1,2019-09-12T01:30:00Z,30.3288,-87.8293,1.856,4.82,11111222 
DISL,ioos:station:DISL:BSCA:1,2019-09-12T02:30:00Z,30.3288,-87.8293,1.877,3.98,11111222 
DISL,ioos:station:DISL:BSCA:1,2019-09-12T03:30:00Z,30.3288,-87.8293,1.9,4.98,11111222 
DISL,ioos:station:DISL:BSCA:1,2019-09-12T04:30:00Z,30.3288,-87.8293,1.937,4.58,11111222 
DISL,ioos:station:DISL:BSCA:1,2019-09-12T05:30:00Z,30.3288,-87.8293,1.973,3.57,11111222 
DISL,ioos:station:DISL:BSCA:1,2019-09-12T06:30:00Z,30.3288,-87.8293,1.995,4.11,11111222 
DISL,ioos:station:DISL:BSCA:1,2019-09-12T07:30:00Z,30.3288,-87.8293,2.024,4.47,11111222 
DISL,ioos:station:DISL:BSCA:1,2019-09-12T08:30:00Z,30.3288,-87.8293,2.039,3.57,11111222 
DISL,ioos:station:DISL:BSCA:1,2019-09-12T09:30:00Z,30.3288,-87.8293,2.029,3.13,11111222 
DISL,ioos:station:DISL:BSCA:1,2019-09-12T10:30:00Z,30.3288,-87.8293,2.055,3.1,11111222 
DISL,ioos:station:DISL:BSCA:1,2019-09-12T11:30:00Z,30.3288,-87.8293,2.065,3.65,11111222 
DISL,ioos:station:DISL:BSCA:1,2019-09-12T12:30:00Z,30.3288,-87.8293,2.103,3.4,11111222 